N337B KGKT-2NC0

Flight info

Callsign N337B
Flight time 0h 27m
Altitude 7000
Route SOT WEAKS
Aircraft C337/L-SFG/C

Departure

Time 2026-05-07 16:04
Airport Gatlinburg-Pigeon Forge Airport (KGKT)

Arrival

Time 2026-05-07 16:32
Airport Mountain Air Airport (2NC0)
Time Latitude Longitude Altitude Speed Heading
2026-05-07 15:58 35.85808 -83.52563 1010 ft 0 kts 356°
2026-05-07 16:00 35.85810 -83.52561 1010 ft 4 kts 60°
2026-05-07 16:00 35.85785 -83.52498 1010 ft 10 kts 99°
2026-05-07 16:00 35.85773 -83.52405 1009 ft 11 kts 99°
2026-05-07 16:00 35.85760 -83.52312 1008 ft 11 kts 101°
2026-05-07 16:01 35.85750 -83.52224 1007 ft 10 kts 98°
2026-05-07 16:01 35.85756 -83.52143 1007 ft 6 kts 104°
2026-05-07 16:01 35.85755 -83.52140 1007 ft 0 kts 139°
2026-05-07 16:03 35.85747 -83.52136 1006 ft 7 kts 159°
2026-05-07 16:03 35.85723 -83.52079 1006 ft 6 kts 159°
2026-05-07 16:03 35.85688 -83.52081 1005 ft 13 kts 192°
2026-05-07 16:03 35.85679 -83.52094 1006 ft 0 kts 277°
2026-05-07 16:04 35.85697 -83.52238 1007 ft 50 kts 277°
2026-05-07 16:04 35.85779 -83.52874 1112 ft 88 kts 279°
2026-05-07 16:04 35.85841 -83.53610 1560 ft 85 kts 283°
2026-05-07 16:04 35.85908 -83.54315 2024 ft 86 kts 275°
2026-05-07 16:05 35.85931 -83.55167 2203 ft 116 kts 278°
2026-05-07 16:05 35.86030 -83.56202 2552 ft 128 kts 279°
2026-05-07 16:05 35.86120 -83.57295 2955 ft 128 kts 279°
2026-05-07 16:05 35.86189 -83.58355 3461 ft 120 kts 270°
2026-05-07 16:06 35.85815 -83.59222 3951 ft 114 kts 217°
2026-05-07 16:06 35.85101 -83.59397 4430 ft 99 kts 177°
2026-05-07 16:06 35.84518 -83.59109 4860 ft 86 kts 146°
2026-05-07 16:06 35.84123 -83.58479 5006 ft 105 kts 110°
2026-05-07 16:07 35.84027 -83.57525 5189 ft 116 kts 94°
2026-05-07 16:07 35.83952 -83.56543 5528 ft 115 kts 97°
2026-05-07 16:07 35.83868 -83.55560 5824 ft 118 kts 97°
2026-05-07 16:07 35.83777 -83.54534 6115 ft 123 kts 98°
2026-05-07 16:08 35.83679 -83.53472 6404 ft 126 kts 98°
2026-05-07 16:08 35.83578 -83.52387 6678 ft 129 kts 99°
2026-05-07 16:08 35.83474 -83.51281 6948 ft 131 kts 99°
2026-05-07 16:08 35.83358 -83.50086 7015 ft 152 kts 99°
2026-05-07 16:09 35.83227 -83.48716 7018 ft 169 kts 98°
2026-05-07 16:09 35.83085 -83.47232 7018 ft 179 kts 98°
2026-05-07 16:09 35.82937 -83.45674 7012 ft 186 kts 98°
2026-05-07 16:09 35.82788 -83.44106 7011 ft 188 kts 98°
2026-05-07 16:10 35.82635 -83.42497 7009 ft 190 kts 98°
2026-05-07 16:10 35.82480 -83.40871 7007 ft 192 kts 98°
2026-05-07 16:10 35.82323 -83.39237 7009 ft 192 kts 98°
2026-05-07 16:10 35.82164 -83.37595 6993 ft 193 kts 98°
2026-05-07 16:11 35.82007 -83.35953 6992 ft 193 kts 99°
2026-05-07 16:11 35.81848 -83.34299 6995 ft 195 kts 98°
2026-05-07 16:11 35.81687 -83.32633 6994 ft 196 kts 99°
2026-05-07 16:11 35.81528 -83.30985 6990 ft 197 kts 98°
2026-05-07 16:12 35.81365 -83.29310 6986 ft 197 kts 98°
2026-05-07 16:12 35.81204 -83.27639 6985 ft 196 kts 99°
2026-05-07 16:12 35.81042 -83.25972 6982 ft 196 kts 99°
2026-05-07 16:12 35.80880 -83.24307 6981 ft 196 kts 99°
2026-05-07 16:13 35.80718 -83.22637 6977 ft 197 kts 99°
2026-05-07 16:13 35.80554 -83.20961 6978 ft 198 kts 99°
2026-05-07 16:13 35.80390 -83.19276 6970 ft 198 kts 99°
2026-05-07 16:13 35.80227 -83.17594 6963 ft 198 kts 99°
2026-05-07 16:14 35.80061 -83.15913 6960 ft 198 kts 99°
2026-05-07 16:14 35.79896 -83.14237 6956 ft 196 kts 99°
2026-05-07 16:14 35.79733 -83.12585 6958 ft 198 kts 99°
2026-05-07 16:14 35.79567 -83.10892 6953 ft 200 kts 99°
2026-05-07 16:15 35.79400 -83.09190 6952 ft 201 kts 99°
2026-05-07 16:15 35.79232 -83.07480 6952 ft 201 kts 99°
2026-05-07 16:15 35.79064 -83.05782 6952 ft 199 kts 99°
2026-05-07 16:15 35.78845 -83.04117 6937 ft 194 kts 102°
2026-05-07 16:16 35.78657 -83.02476 6934 ft 193 kts 99°
2026-05-07 16:16 35.78476 -83.00827 6934 ft 196 kts 100°
2026-05-07 16:16 35.78278 -82.99185 6942 ft 197 kts 101°
2026-05-07 16:16 35.78072 -82.97506 6938 ft 200 kts 101°
2026-05-07 16:17 35.77866 -82.95817 6944 ft 200 kts 100°
2026-05-07 16:17 35.77662 -82.94123 6938 ft 200 kts 101°
2026-05-07 16:17 35.77456 -82.92433 6937 ft 200 kts 101°
2026-05-07 16:17 35.77249 -82.90740 6938 ft 200 kts 100°
2026-05-07 16:18 35.77043 -82.89053 6940 ft 199 kts 100°
2026-05-07 16:18 35.76838 -82.87372 6936 ft 199 kts 101°
2026-05-07 16:18 35.76629 -82.85678 6934 ft 202 kts 101°
2026-05-07 16:18 35.76417 -82.83965 6927 ft 203 kts 100°
2026-05-07 16:19 35.76209 -82.82249 6922 ft 202 kts 99°
2026-05-07 16:19 35.76004 -82.80568 6934 ft 202 kts 101°
2026-05-07 16:19 35.75789 -82.78839 6792 ft 206 kts 100°
2026-05-07 16:19 35.75575 -82.77095 6634 ft 207 kts 101°
2026-05-07 16:20 35.75359 -82.75333 6421 ft 206 kts 102°
2026-05-07 16:20 35.75252 -82.73601 6201 ft 205 kts 84°
2026-05-07 16:20 35.75491 -82.71859 5940 ft 206 kts 78°
2026-05-07 16:20 35.75737 -82.70122 5696 ft 206 kts 79°
2026-05-07 16:21 35.75987 -82.68389 5441 ft 205 kts 79°
2026-05-07 16:21 35.76233 -82.66671 5193 ft 202 kts 79°
2026-05-07 16:21 35.76471 -82.64970 4955 ft 200 kts 82°
2026-05-07 16:21 35.76314 -82.63297 4698 ft 200 kts 101°
2026-05-07 16:22 35.76050 -82.61624 4451 ft 199 kts 99°
2026-05-07 16:22 35.75845 -82.59935 4199 ft 199 kts 97°
2026-05-07 16:22 35.75746 -82.58258 3978 ft 194 kts 84°
2026-05-07 16:22 35.75981 -82.56656 3911 ft 186 kts 76°
2026-05-07 16:23 35.76209 -82.55097 3790 ft 184 kts 79°
2026-05-07 16:23 35.76405 -82.53513 3830 ft 178 kts 80°
2026-05-07 16:23 35.76608 -82.52074 3807 ft 176 kts 77°
2026-05-07 16:23 35.76808 -82.50591 3793 ft 176 kts 81°
2026-05-07 16:24 35.76933 -82.49108 3764 ft 175 kts 86°
2026-05-07 16:24 35.76977 -82.47648 3839 ft 170 kts 89°
2026-05-07 16:24 35.76948 -82.46159 3782 ft 176 kts 90°
2026-05-07 16:24 35.77187 -82.44727 3800 ft 174 kts 57°
2026-05-07 16:25 35.77903 -82.43576 3921 ft 166 kts 56°
2026-05-07 16:25 35.78324 -82.42260 4047 ft 165 kts 74°
2026-05-07 16:25 35.78587 -82.40901 4152 ft 165 kts 75°
2026-05-07 16:25 35.78869 -82.39554 4394 ft 158 kts 73°
2026-05-07 16:26 35.79168 -82.38269 4584 ft 159 kts 71°
2026-05-07 16:26 35.79642 -82.37014 4730 ft 160 kts 51°
2026-05-07 16:26 35.80350 -82.36000 5010 ft 156 kts 46°
2026-05-07 16:26 35.80830 -82.35307 5017 ft 168 kts 43°
2026-05-07 16:27 35.81906 -82.33845 4878 ft 170 kts 48°
2026-05-07 16:27 35.82577 -82.32746 4876 ft 154 kts 50°
2026-05-07 16:27 35.83215 -82.31755 4906 ft 141 kts 42°
2026-05-07 16:27 35.84020 -82.31155 4628 ft 131 kts
2026-05-07 16:28 35.84736 -82.31481 4309 ft 99 kts 323°
2026-05-07 16:28 35.85144 -82.32037 4203 ft 87 kts 308°
2026-05-07 16:28 35.85533 -82.32567 4150 ft 82 kts 305°
2026-05-07 16:28 35.85907 -82.33099 4253 ft 86 kts 308°
2026-05-07 16:29 35.86491 -82.33450 4202 ft 115 kts 359°
2026-05-07 16:29 35.87341 -82.33054 4187 ft 142 kts 23°
2026-05-07 16:29 35.88072 -82.32386 4717 ft 128 kts 51°
2026-05-07 16:29 35.88157 -82.31281 4911 ft 145 kts 117°
2026-05-07 16:30 35.87633 -82.30191 4987 ft 151 kts 146°
2026-05-07 16:30 35.86693 -82.29968 5002 ft 135 kts 202°
2026-05-07 16:30 35.86035 -82.30618 5226 ft 114 kts 235°
2026-05-07 16:30 35.85555 -82.31418 5252 ft 117 kts 240°
2026-05-07 16:31 35.85490 -82.32329 4962 ft 115 kts 292°
2026-05-07 16:31 35.85928 -82.33046 4788 ft 96 kts 306°
2026-05-07 16:31 35.86358 -82.33581 4569 ft 82 kts 301°
2026-05-07 16:31 35.86739 -82.34058 4392 ft 69 kts 310°
2026-05-07 16:32 35.86961 -82.34328 4404 ft 26 kts 318°
2026-05-07 16:32 35.87063 -82.34385 4407 ft 8 kts 253°
2026-05-07 16:32 35.87053 -82.34400 4407 ft 0 kts 220°